{"data":{"norad_id":63162,"epoch":"2026-05-25T04:16:57.216864Z","epoch_age_seconds":59877,"freshness":"FRESH","line1":"1 63162U 25046D   26145.17844001  .00000155  00000+0  22066-3 0  9997","line2":"2 63162  88.9692 303.1843 0013974  23.6665 336.5126 13.51008441 69420","mean_motion":13.51008441,"eccentricity":0.0013974,"inclination_deg":88.9692,"raan_deg":303.1843,"arg_perigee_deg":23.6665,"mean_anomaly_deg":336.5126,"bstar":0.00022066,"rev_number":6942,"period_min":106.58704685325,"perigee_km":1058.1445663111,"apogee_km":1078.9565687248,"semimajor_km":7446.6875675179,"source":"CELESTRAK","updated_at":"2026-05-25T13:38:03.538423Z"}}